Location: Arezzo
(43.4170°N, 11.8830°E)
Time: 02:30:48
(UTC+01:00)

STARLINK-2711 - Pass Details

Date: 28 October 2021
Orbit: 545 x 549 km, 53.1° (Epoch: 30 November)

Event Time Altitude Azimuth Distance (km) Brightness Sun altitude
Exits shadow 06:09:41 33° 239° (WSW) 931 4.3 -17.4°
Maximum altitude 06:11:28 84° 323° (NW) 555 3.5 -17.1°
Drops below altitude 10° 06:15:37 10° 54° (NE) 1,821 7.0 -16.4°
Sets 06:17:52 0° 55° (NE) 2,718 8.0 -15.9°
